User: anonymous   Login
Location: Newark
(51.2000°N, 58.6167°E)
Time: 08:40:07
(UTC+00:00)
Language:

Envisat - Orbit

View from above orbital plane
View from above orbital plane
View from above satellite
View from above satellite

Ground track
Ground track

The orbit data is extracted from the following two-line orbital elements,

1 27386U 02009A   20297.03834694  .00000022  00000-0  20728-4 0  9991
2 27386  98.1400 297.3954 0001215  91.6699 335.1659 14.37996096976950
Epoch (UTC): 23 October 2020 00:55:13
Eccentricity: 0.0001215
inclination: 98.1400°
perigee height: 764 km
apogee height: 766 km
right ascension of ascending node: 297.3954°
argument of perigee: 91.6699°
revolutions per day: 14.37996096
mean anomaly at epoch: 335.1659°
orbit number at epoch: 97695

The dashed part of the orbit path shows where the satellite is in the earth's shadow,  

DLR